sat.trackr.live / text

‹ back to catalog

STARLINK-1286

NORAD 45417 · 2020-019BK

PAYLOAD ACTIVE UNKNOWN

§ Identity

Operator
Country
US
Launch date
2020-03-18
Launch site
AFETR
Launch vehicle
Mass (kg)
RCS (m²)

Purposes: comms

External: N2YO · Heavens-Above · Gunter

§ Orbital elements

Epoch: 2026-09-20T00:34:05.231424Z

Period
91.19 min
Inclination
53.0369°
Eccentricity
0.0003478
Mean motion
15.79049855 rev/d
Perigee alt
330.8 km
Apogee alt
335.5 km
Semi-major
6,711.3 km
B*
6.4203e-4
RAAN
258.6143°
Arg perigee
33.9519°
Mean anomaly
326.1723°
Rev number
36,063

§ Raw data

STARLINK-12861 45417U 20019BK  26263.02367166  .00117562  00000+0  64203-3 0  99922 45417  53.0369 258.6143 0003478  33.9519 326.1723 15.79049855360635

JSON: /api/v1/satellites/45417 · /tle

For live sub-satellite position, see the globe view (requires WebGL).

§ Visibility from observer

Set your observer location to see the next 7 days of passes ≥ 10°. The values pass through the URL so the page stays shareable.

No JS? Fill the form by hand. The geolocation button needs JavaScript.